Time,TemperatureF,DewpointF,PressureIn,WindDirection,WindDirectionDegrees,WindSpeedMPH,WindSpeedGustMPH,Humidity,HourlyPrecipIn,Conditions,Clouds,dailyrainin,SoftwareType,DateUTC
2013-02-04 00:11:00,27.6,25.0,29.67,North,349,21.0,26.0,91,0.00,,,0.00,weatherlink.com 1.10,2013-02-04 05:11:00,
2013-02-04 00:26:00,27.3,25.0,29.68,NW,324,17.0,28.0,91,0.00,,,0.00,weatherlink.com 1.10,2013-02-04 05:26:00,
2013-02-04 00:41:00,27.0,25.0,29.67,WNW,287,13.0,26.0,92,0.00,,,0.00,weatherlink.com 1.10,2013-02-04 05:41:00,
2013-02-04 00:56:00,26.9,25.0,29.68,NW,312,16.0,27.0,92,0.00,,,0.00,weatherlink.com 1.10,2013-02-04 05:56:00,
2013-02-04 01:11:00,26.6,25.0,29.68,NW,311,11.0,27.0,92,0.00,,,0.00,weatherlink.com 1.10,2013-02-04 06:11:00,
2013-02-04 01:26:00,26.4,24.0,29.69,NW,317,18.0,27.0,91,0.00,,,0.00,weatherlink.com 1.10,2013-02-04 06:26:00,
2013-02-04 01:41:00,26.3,24.0,29.69,NW,310,17.0,24.0,90,0.00,,,0.00,weatherlink.com 1.10,2013-02-04 06:41:00,
2013-02-04 01:56:00,26.3,24.0,29.70,WNW,293,16.0,25.0,89,0.00,,,0.00,weatherlink.com 1.10,2013-02-04 06:56:00,
2013-02-04 02:11:00,25.8,23.0,29.69,NW,316,13.0,24.0,90,0.00,,,0.00,weatherlink.com 1.10,2013-02-04 07:11:00,
2013-02-04 02:26:00,25.8,23.0,29.69,NNW,332,13.0,24.0,87,0.00,,,0.00,weatherlink.com 1.10,2013-02-04 07:26:00,
2013-02-04 02:41:00,25.8,22.0,29.69,WNW,284,18.0,25.0,86,0.00,,,0.00,weatherlink.com 1.10,2013-02-04 07:41:00,
2013-02-04 02:56:00,26.0,22.0,29.69,NW,319,11.0,21.0,84,0.00,,,0.00,weatherlink.com 1.10,2013-02-04 07:56:00,
2013-02-04 03:11:00,26.0,22.0,29.69,WNW,302,12.0,20.0,83,0.00,,,0.00,weatherlink.com 1.10,2013-02-04 08:11:00,
2013-02-04 03:26:00,25.9,21.0,29.70,NW,309,15.0,21.0,83,0.00,,,0.00,weatherlink.com 1.10,2013-02-04 08:26:00,
2013-02-04 03:41:00,25.5,21.0,29.70,WNW,302,11.0,23.0,84,0.00,,,0.00,weatherlink.com 1.10,2013-02-04 08:41:00,
2013-02-04 03:56:00,25.1,21.0,29.70,WNW,293,7.0,16.0,84,0.00,,,0.00,weatherlink.com 1.10,2013-02-04 08:56:00,
2013-02-04 04:11:00,24.7,21.0,29.71,NW,311,10.0,17.0,84,0.00,,,0.00,weatherlink.com 1.10,2013-02-04 09:11:00,
2013-02-04 04:26:00,24.3,20.0,29.72,NW,305,7.0,16.0,85,0.00,,,0.00,weatherlink.com 1.10,2013-02-04 09:26:00,
2013-02-04 04:41:00,24.1,21.0,29.72,NW,324,6.0,15.0,86,0.00,,,0.00,weatherlink.com 1.10,2013-02-04 09:41:00,
2013-02-04 04:57:00,23.8,20.0,29.73,WNW,292,7.0,11.0,86,0.00,,,0.00,weatherlink.com 1.10,2013-02-04 09:57:00,
2013-02-04 05:11:00,23.6,20.0,29.73,WNW,289,7.0,11.0,84,0.00,,,0.00,weatherlink.com 1.10,2013-02-04 10:11:00,
2013-02-04 05:26:00,23.8,19.0,29.73,WNW,297,9.0,14.0,81,0.00,,,0.00,weatherlink.com 1.10,2013-02-04 10:26:00,
2013-02-04 05:41:00,24.0,18.0,29.74,WNW,283,13.0,17.0,79,0.00,,,0.00,weatherlink.com 1.10,2013-02-04 10:41:00,
2013-02-04 05:56:00,24.0,18.0,29.75,WNW,293,8.0,16.0,78,0.00,,,0.00,weatherlink.com 1.10,2013-02-04 10:56:00,
2013-02-04 06:11:00,23.9,18.0,29.75,WNW,288,9.0,12.0,78,0.00,,,0.00,weatherlink.com 1.10,2013-02-04 11:11:00,
2013-02-04 06:26:00,24.0,17.0,29.75,WNW,294,8.0,14.0,76,0.00,,,0.00,weatherlink.com 1.10,2013-02-04 11:26:00,
2013-02-04 06:41:00,24.1,18.0,29.75,NW,305,11.0,17.0,76,0.00,,,0.00,weatherlink.com 1.10,2013-02-04 11:41:00,
2013-02-04 06:56:00,24.2,17.0,29.76,WNW,293,8.0,17.0,75,0.00,,,0.00,weatherlink.com 1.10,2013-02-04 11:56:00,
2013-02-04 07:12:00,24.3,17.0,29.76,NW,319,14.0,18.0,73,0.00,,,0.00,weatherlink.com 1.10,2013-02-04 12:12:00,
2013-02-04 07:26:00,24.8,17.0,29.77,WNW,300,6.0,18.0,73,0.00,,,0.00,weatherlink.com 1.10,2013-02-04 12:26:00,
2013-02-04 07:42:00,25.2,17.0,29.77,WNW,301,12.0,21.0,72,0.00,,,0.00,weatherlink.com 1.10,2013-02-04 12:42:00,
2013-02-04 07:57:00,25.5,18.0,29.78,WNW,287,6.0,17.0,72,0.00,,,0.00,weatherlink.com 1.10,2013-02-04 12:57:00,
2013-02-04 08:12:00,25.8,17.0,29.78,WNW,295,10.0,19.0,70,0.00,,,0.00,weatherlink.com 1.10,2013-02-04 13:12:00,
2013-02-04 08:27:00,26.1,17.0,29.78,NW,324,14.0,22.0,69,0.00,,,0.00,weatherlink.com 1.10,2013-02-04 13:27:00,
2013-02-04 08:42:00,26.3,16.0,29.78,WNW,295,12.0,24.0,65,0.00,,,0.00,weatherlink.com 1.10,2013-02-04 13:42:00,
2013-02-04 08:57:00,26.5,15.0,29.78,WNW,297,12.0,24.0,63,0.00,,,0.00,weatherlink.com 1.10,2013-02-04 13:57:00,
2013-02-04 09:12:00,26.6,16.0,29.79,WNW,291,22.0,24.0,64,0.00,,,0.00,weatherlink.com 1.10,2013-02-04 14:12:00,
2013-02-04 09:27:00,26.9,16.0,29.79,WNW,297,16.0,26.0,64,0.00,,,0.00,weatherlink.com 1.10,2013-02-04 14:27:00,
2013-02-04 09:42:00,27.0,15.0,29.79,NW,319,19.0,24.0,61,0.00,,,0.00,weatherlink.com 1.10,2013-02-04 14:42:00,
2013-02-04 09:57:00,27.2,14.0,29.79,NW,308,14.0,29.0,59,0.00,,,0.00,weatherlink.com 1.10,2013-02-04 14:57:00,
2013-02-04 10:12:00,27.4,14.0,29.79,NW,307,22.0,30.0,57,0.00,,,0.00,weatherlink.com 1.10,2013-02-04 15:12:00,
2013-02-04 10:27:00,28.0,14.0,29.79,NW,304,12.0,29.0,56,0.00,,,0.00,weatherlink.com 1.10,2013-02-04 15:27:00,
2013-02-04 10:42:00,27.9,13.0,29.79,WSW,253,16.0,31.0,53,0.00,,,0.00,weatherlink.com 1.10,2013-02-04 15:42:00,
2013-02-04 10:57:00,28.7,14.0,29.80,North,359,17.0,30.0,55,0.00,,,0.00,weatherlink.com 1.10,2013-02-04 15:57:00,
2013-02-04 11:12:00,28.6,12.0,29.80,NW,304,16.0,32.0,51,0.00,,,0.00,weatherlink.com 1.10,2013-02-04 16:12:00,
2013-02-04 11:27:00,28.8,12.0,29.79,WNW,301,15.0,31.0,50,0.00,,,0.00,weatherlink.com 1.10,2013-02-04 16:27:00,
2013-02-04 11:42:00,28.9,11.0,29.79,NNW,333,13.0,29.0,48,0.00,,,0.00,weatherlink.com 1.10,2013-02-04 16:42:00,
2013-02-04 11:57:00,29.0,11.0,29.79,NW,310,17.0,33.0,48,0.00,,,0.00,weatherlink.com 1.10,2013-02-04 16:57:00,
2013-02-04 12:12:00,29.3,9.0,29.79,WNW,300,25.0,31.0,43,0.00,,,0.00,weatherlink.com 1.10,2013-02-04 17:12:00,
2013-02-04 12:27:00,29.3,11.0,29.78,West,267,21.0,30.0,47,0.00,,,0.00,weatherlink.com 1.10,2013-02-04 17:27:00,
2013-02-04 12:42:00,29.7,11.0,29.78,WNW,300,20.0,27.0,45,0.00,,,0.00,weatherlink.com 1.10,2013-02-04 17:42:00,
2013-02-04 12:57:00,29.7,12.0,29.78,WNW,300,15.0,29.0,48,0.00,,,0.00,weatherlink.com 1.10,2013-02-04 17:57:00,
2013-02-04 13:12:00,29.4,9.0,29.78,NW,307,13.0,29.0,43,0.00,,,0.00,weatherlink.com 1.10,2013-02-04 18:12:00,
2013-02-04 13:27:00,29.8,10.0,29.78,NW,305,16.0,29.0,44,0.00,,,0.00,weatherlink.com 1.10,2013-02-04 18:27:00,
2013-02-04 13:42:00,30.0,11.0,29.78,WNW,303,16.0,23.0,45,0.00,,,0.00,weatherlink.com 1.10,2013-02-04 18:42:00,
2013-02-04 13:57:00,30.3,10.0,29.78,NW,325,21.0,27.0,43,0.00,,,0.00,weatherlink.com 1.10,2013-02-04 18:57:00,
2013-02-04 14:13:00,30.1,9.0,29.79,West,281,10.0,25.0,42,0.00,,,0.00,weatherlink.com 1.10,2013-02-04 19:13:00,
2013-02-04 14:27:00,30.4,12.0,29.79,NW,319,23.0,25.0,47,0.00,,,0.00,weatherlink.com 1.10,2013-02-04 19:27:00,
2013-02-04 14:43:00,30.5,10.0,29.80,West,281,22.0,26.0,43,0.00,,,0.00,weatherlink.com 1.10,2013-02-04 19:43:00,
2013-02-04 14:58:00,30.2,13.0,29.80,West,259,20.0,30.0,48,0.00,,,0.00,weatherlink.com 1.10,2013-02-04 19:58:00,
2013-02-04 15:12:00,30.3,10.0,29.80,WNW,287,6.0,28.0,43,0.00,,,0.00,weatherlink.com 1.10,2013-02-04 20:12:00,
2013-02-04 15:27:00,29.6,9.0,29.81,WNW,284,9.0,30.0,43,0.00,,,0.00,weatherlink.com 1.10,2013-02-04 20:27:00,
2013-02-04 15:42:00,29.7,11.0,29.82,NNW,342,9.0,25.0,45,0.00,,,0.00,weatherlink.com 1.10,2013-02-04 20:42:00,
2013-02-04 15:57:00,29.3,9.0,29.82,West,269,21.0,27.0,43,0.00,,,0.00,weatherlink.com 1.10,2013-02-04 20:57:00,
2013-02-04 16:12:00,28.8,10.0,29.81,West,269,22.0,31.0,45,0.00,,,0.00,weatherlink.com 1.10,2013-02-04 21:12:00,
2013-02-04 16:27:00,28.5,10.0,29.82,ENE,66,8.0,21.0,46,0.00,,,0.00,weatherlink.com 1.10,2013-02-04 21:27:00,
2013-02-04 16:42:00,28.0,10.0,29.82,WNW,291,10.0,24.0,46,0.00,,,0.00,weatherlink.com 1.10,2013-02-04 21:42:00,
2013-02-04 16:57:00,27.5,10.0,29.82,West,270,15.0,19.0,48,0.00,,,0.00,weatherlink.com 1.10,2013-02-04 21:57:00,
2013-02-04 17:13:00,27.0,10.0,29.83,WNW,283,8.0,20.0,48,0.00,,,0.00,weatherlink.com 1.10,2013-02-04 22:13:00,
2013-02-04 17:28:00,26.9,10.0,29.84,WNW,288,10.0,18.0,49,0.00,,,0.00,weatherlink.com 1.10,2013-02-04 22:28:00,
2013-02-04 17:43:00,26.9,9.0,29.85,WNW,284,11.0,18.0,48,0.00,,,0.00,weatherlink.com 1.10,2013-02-04 22:43:00,
2013-02-04 17:58:00,26.7,9.0,29.86,WNW,297,9.0,14.0,47,0.00,,,0.00,weatherlink.com 1.10,2013-02-04 22:58:00,
2013-02-04 18:13:00,26.4,9.0,29.87,West,277,5.0,11.0,48,0.00,,,0.00,weatherlink.com 1.10,2013-02-04 23:13:00,
2013-02-04 18:28:00,26.5,9.0,29.87,West,267,11.0,19.0,48,0.00,,,0.00,weatherlink.com 1.10,2013-02-04 23:28:00,
2013-02-04 18:43:00,26.5,8.0,29.88,WNW,290,9.0,17.0,46,0.00,,,0.00,weatherlink.com 1.10,2013-02-04 23:43:00,
2013-02-04 18:58:00,26.2,9.0,29.89,WNW,284,8.0,14.0,49,0.00,,,0.00,weatherlink.com 1.10,2013-02-04 23:58:00,
2013-02-04 19:13:00,25.9,9.0,29.89,West,278,9.0,14.0,49,0.00,,,0.00,weatherlink.com 1.10,2013-02-05 00:13:00,
2013-02-04 19:28:00,25.8,9.0,29.90,West,277,9.0,15.0,49,0.00,,,0.00,weatherlink.com 1.10,2013-02-05 00:28:00,
2013-02-04 19:43:00,25.5,10.0,29.90,WNW,288,8.0,11.0,52,0.00,,,0.00,weatherlink.com 1.10,2013-02-05 00:43:00,
2013-02-04 19:58:00,25.4,9.0,29.90,WNW,290,6.0,10.0,51,0.00,,,0.00,weatherlink.com 1.10,2013-02-05 00:58:00,
2013-02-04 20:13:00,25.2,11.0,29.91,West,281,5.0,9.0,54,0.00,,,0.00,weatherlink.com 1.10,2013-02-05 01:13:00,
2013-02-04 20:28:00,24.9,9.0,29.91,WNW,300,5.0,11.0,51,0.00,,,0.00,weatherlink.com 1.10,2013-02-05 01:28:00,
2013-02-04 20:43:00,24.8,9.0,29.92,WNW,289,6.0,9.0,51,0.00,,,0.00,weatherlink.com 1.10,2013-02-05 01:43:00,
2013-02-04 20:58:00,24.6,9.0,29.93,WNW,285,7.0,10.0,52,0.00,,,0.00,weatherlink.com 1.10,2013-02-05 01:58:00,
2013-02-04 21:13:00,24.4,10.0,29.93,WNW,297,7.0,10.0,54,0.00,,,0.00,weatherlink.com 1.10,2013-02-05 02:13:00,
2013-02-04 21:28:00,24.0,10.0,29.94,WNW,293,6.0,9.0,55,0.00,,,0.00,weatherlink.com 1.10,2013-02-05 02:28:00,
2013-02-04 21:43:00,23.7,10.0,29.94,NW,304,4.0,8.0,56,0.00,,,0.00,weatherlink.com 1.10,2013-02-05 02:43:00,
2013-02-04 21:58:00,23.6,11.0,29.94,WNW,290,6.0,10.0,58,0.00,,,0.00,weatherlink.com 1.10,2013-02-05 02:58:00,
2013-02-04 22:13:00,23.8,11.0,29.93,WNW,300,5.0,12.0,58,0.00,,,0.00,weatherlink.com 1.10,2013-02-05 03:13:00,
2013-02-04 22:28:00,23.5,12.0,29.93,WNW,294,7.0,8.0,61,0.00,,,0.00,weatherlink.com 1.10,2013-02-05 03:28:00,
2013-02-04 22:43:00,23.6,11.0,29.94,WNW,283,7.0,13.0,60,0.00,,,0.00,weatherlink.com 1.10,2013-02-05 03:43:00,
2013-02-04 22:58:00,23.7,12.0,29.95,WNW,297,12.0,13.0,61,0.00,,,0.00,weatherlink.com 1.10,2013-02-05 03:58:00,
2013-02-04 23:14:00,23.8,11.0,29.95,NW,310,9.0,12.0,59,0.00,,,0.00,weatherlink.com 1.10,2013-02-05 04:14:00,
2013-02-04 23:29:00,23.8,12.0,29.96,NNW,344,5.0,13.0,61,0.00,,,0.00,weatherlink.com 1.10,2013-02-05 04:29:00,
2013-02-04 23:44:00,23.6,11.0,29.96,WNW,290,8.0,12.0,60,0.00,,,0.00,weatherlink.com 1.10,2013-02-05 04:44:00,
2013-02-04 23:58:00,23.6,11.0,29.96,WNW,301,7.0,13.0,60,0.00,,,0.00,weatherlink.com 1.10,2013-02-05 04:58:00,